Погода в Хасаут-Греческом

Россия / Карачаево-Черкесская Республика     43°42′53″N   41°40′19″E
темп.,
°C
ветер,
м/с
пор.,
м/с
влажн.,
%
обл.,
%
осадки,
мм/ч
давл.,
гПа
погр.,
м
2 августа, пн
пн200:00+14ю32910 0.0 101539
03:00+13ю32890 0.0 101535
06:00+14ю22850 0.1 101543
09:00+23с11530 0.3 1013909
12:00+25с324956 0.5 10131925
15:00+22ююз007250 2.9 1012143
18:00+19ююз228853 3.0 101431
21:00+15ю329338 4.1 101534
3 августа, вт
вт300:00+14ю33921 0.7 101539
03:00+14ю32910 1.1 101534
06:00+15ю22870 0.1 101634
09:00+24с11530 0.2 1014729
12:00+26с324721 0.3 10131848
15:00+24в125893 1.6 10141195
18:00+21ю237751 1.0 1015104
21:00+17ю33828 1.1 101656
4 августа, ср
ср400:00+15ю33842 0.0 101746
03:00+16ю33780 0.0 101741
06:00+16ю22770 0.0 101740
09:00+25ссв11470 0.0 1015748
12:00+27с424417 0.0 10151892
15:00+25ссв235651 0.8 10151231
18:00+22ю227599 2.6 101644
21:00+16ю339125 4.4 101840
5 августа, чт
чт500:00+15ю32880 0.0 101735
03:00+14ю22840 0.0 101728
06:00+15ю22800 0.0 101740
09:00+23ссв11531 0.0 1015547
12:00+26с32490 0.0 10141235
15:00+26ссз325014 0.1 10141539
18:00+23з11750 0.8 101450
21:00+17ю32890 1.0 101540
6 августа, пт
пт600:00+16ю32881 0.0 101436
03:00+15ююв32845 0.0 101335
06:00+15ю32746 0.0 101340
09:00+24св1146100 0.0 1011427
12:00+27с324581 0.0 10101069
15:00+28ссз2247100 0.1 10081253
18:00+17св1192100 3.6 101232
21:00+15ю3596100 8.9 1014105